Regional Weather Roundup
Issued by NWS

Home | Current Version | Previous Version | Text Only | Print | Product List | Glossary Off
Versions: 1 2 3 4 5 6 7 8 9 10 11 12 13 14 15 16 17 18 19 20 21 22 23 24 25 26 27 28 29 30 31 32 33 34 35 36 37 38 39 40 41 42 43 44 45 46 47 48 49 50

000
ASUS43 KDMX 261707
RWRIA

WEATHER ROUNDUP FOR IOWA
NATIONAL WEATHER SERVICE DES MOINES IA
1200 PM CDT SUN APR 26 2015

NOTE: "FAIR" INDICATES FEW OR NO CLOUDS BELOW 12,000 FEET WITH NO
SIGNIFICANT WEATHER AND/OR OBSTRUCTIONS TO VISIBILITY.

* - THESE STATIONS ARE NOT NWS STATIONS...THUS NOT UNDER NWS
QUALITY CONTROL.  THEY ALSO DO NOT REPORT WEATHER SUCH
AS PRECIPITATION OR FOG.

IAZ001>003-012>014-020>022-031>034-043>046-261800-
   NORTHWEST IOWA

CITY           SKY/WX    TMP DP  RH WIND       PRES   REMARKS
CARROLL *      SUNNY     55  34  44 NE9G16    30.07F
CHEROKEE *     SUNNY     59  32  36 NE6       30.08S
DENISON *      SUNNY     55  34  44 E12       30.05F
LE MARS *      SUNNY     59  32  36 VRB7G14   30.09S
ORANGE CITY *  SUNNY     57  30  35 E7        30.07F
SHELDON *      SUNNY     61  30  31 NE7       30.06S
SIOUX CITY     SUNNY     58  33  39 E10       30.08S
SPENCER        SUNNY     60  31  33 VRB3      30.08S
STORM LAKE *   SUNNY     57  30  35 E13       30.08S
$$

IAZ055>058-069>071-079>083-090>094-261800-
   SOUTHWEST IOWA

CITY           SKY/WX    TMP DP  RH WIND       PRES   REMARKS
ATLANTIC *     SUNNY     54  37  54 E8G16     30.06S
AUDUBON *      SUNNY     55  37  50 E8        30.07S
CLARINDA *     SUNNY     55  39  54 E12G17    30.06S
COUNCIL BLFS * PTSUNNY   54  43  66 E12G17    30.06S
CRESTON *      SUNNY     54  37  54 NE9G20    30.05S
HARLAN  *      SUNNY     54  41  62 NE9G16    30.10S
LAMONI         SUNNY     57  36  45 E8G16     30.03R
RED OAK *      SUNNY     55  43  62 E12       30.05F
SHENANDOAH *   SUNNY     55  41  58 E10G18    30.05S
$$

IAZ047>049-059>061-072>074-084-261800-
   CENTRAL IOWA

CITY           SKY/WX    TMP DP  RH WIND       PRES   REMARKS
AMES           SUNNY     56  32  40 VRB6      30.07S
ANKENY *       SUNNY     55  36  47 VRB6      30.06F
CHARITON *     SUNNY     55  36  47 NE7       30.04S
DES MOINES     MOSUNNY   58  32  37 E7        30.06F
GRINNELL*      SUNNY     54  32  43 NE9       30.06S
KNOXVILLE *    SUNNY     55  30  38 NE8       30.04S
MARSHALLTOWN   SUNNY     57  26  30 NE14      30.06S
PELLA *        SUNNY     57  37  47 N6        30.06S
PERRY *          N/A     55  36  47 E9        30.07S
$$

IAZ004>006-015-016-023>025-035-036-261800-
   NORTH CENTRAL IOWA

CITY           SKY/WX    TMP DP  RH WIND       PRES   REMARKS
ALGONA *       SUNNY     57  30  35 W3        30.09S
CLARION *      SUNNY     55  21  26 VRB7      30.09S
ESTHERVILLE    SUNNY     58  32  37 MISG      30.08S
FORT DODGE *   SUNNY     57  36  44 E6        30.09S
MASON CITY     SUNNY     56  24  29 VRB6      30.11R
FOREST CITY *  SUNNY     54  25  32 E5        30.10S
IOWA FALLS *     N/A     55  23  28 N7        30.10R
$$

IAZ007>011-017>019-026>030-037>042-050>054-066-261800-
   NORTHEAST IOWA

CITY           SKY/WX    TMP DP  RH WIND       PRES   REMARKS
CEDAR RAPIDS     N/A     53  36  52 E7        30.05S
CHARLES CITY * SUNNY     54  25  32 E7        30.10S
CLINTON *      SUNNY     54  36  50 E9        30.08F
DECORAH *      SUNNY     54  27  35 VRB5G15   30.08S
DUBUQUE        SUNNY     54  30  40 VRB6      30.07S
MONTICELLO *   SUNNY     54  30  40 SE7       30.07S
OELWEIN *      SUNNY     54  28  37 NE12      30.08F
WATERLOO       SUNNY     56  27  32 NE14      30.08R
$$

IAZ064-065-067-068-078-261800-
   EAST CENTRAL IOWA

CITY           SKY/WX    TMP DP  RH WIND       PRES   REMARKS
DAVENPORT      SUNNY     53  32  44 E12       30.06R
IOWA CITY      SUNNY     54  35  48 NE9       30.07S
MT. PLEASANT * SUNNY     54  36  50 NE9       30.04S
MUSCATINE *    SUNNY     54  32  43 NE7       30.06S
QUAD CITIES    SUNNY     55  33  43 NE10      30.05S
$$

IAZ062-063-075>077-085>089-095>099-261800-
   SOUTHEAST IOWA

CITY           SKY/WX    TMP DP  RH WIND       PRES   REMARKS
BURLINGTON     SUNNY     55  38  52 N12       30.03S
FAIRFIELD *    SUNNY     54  36  50 NE8       30.04S
FORT MADISON * SUNNY     55  36  47 NE12      30.03S
KEOKUK *       SUNNY     55  37  50 NE10G17   30.02S
OSKALOOSA *      N/A     54  36  50 NE12      30.05S
CENTERVILLE *  SUNNY     55  37  50 NE8       30.04S
OTTUMWA        SUNNY     55  35  47 N9        30.04S
WASHINGTON *   SUNNY     54  39  58 NE9G15    30.05S
$$

ABBREVIATIONS USED IN REMARKS
   TC - TEMPERATURES IN CELSIUS
  WCI - WIND CHILL INDEX
   HX - HEAT INDEX
  VSB - VISIBILITY
$$



USA.gov is the U.S. government's official web portal to all federal, state and local government web resources and services.